Wind_Speed
16 15 15 14 13 12 13 13 12 12 12 13 13 12 12 12 12 12 12 11 11 11 11 11 13 12 11 13 15 16 17 18 18 19 23 24 20 17 16 12 9 12 13 12 13 15 17 17 14 13 12 11 10 11 13 9 6 4 3 2 1 3 4 4 6 5 2 4 6 12 14 5 3 2 7 6 6 10 10 4 4 4 3 4 5 5 9 22
17 14 14 15 13 13 13 13 13 13 13 12 12 13 13 13 13 12 12 11 11 11 12 12 12 12 11 13 14 16 18 19 20 23 26 22 19 17 16 14 13 14 15 15 15 15 17 17 16 14 13 11 8 9 11 9 8 5 3 2 4 5 5 5 7 5 3 5 8 15 14 6 3 3 6 3 3 5 5 2 4 3 2 4 4 6 15 23
17 15 15 15 14 13 13 12 12 13 13 13 12 13 14 14 13 13 13 11 11 11 12 13 12 11 11 13 14 15 17 18 21 27 27 21 19 18 16 15 15 16 16 15 14 13 13 13 14 14 13 9 7 9 9 7 7 6 4 2 6 5 5 8 9 10 10 10 10 13 10 6 5 1 3 4 4 2 2 3 3 6 7 7 8 14 21 25
16 15 15 16 15 14 14 13 12 12 13 13 12 12 13 14 13 13 13 12 11 12 13 13 12 11 11 13 13 13 14 15 19 24 23 18 18 18 18 17 17 18 16 15 13 13 11 10 13 15 12 6 5 7 6 8 7 4 5 4 6 3 4 10 10 12 15 12 10 11 10 6 3 1 2 7 6 3 4 6 6 6 10 13 16 20 23 25
16 15 15 16 15 14 14 14 13 12 13 14 13 13 13 13 13 13 13 12 12 13 13 13 12 11 11 12 12 10 7 7 9 14 12 10 13 16 19 19 19 20 17 16 16 15 13 10 12 14 10 4 4 4 4 11 9 3 4 6 7 3 4 11 10 11 12 9 8 7 7 5 1 2 5 9 5 2 3 5 7 6 8 13 19 22 24 24
17 17 17 16 14 14 14 13 13 12 13 14 13 13 13 13 13 12 13 13 13 14 14 14 13 11 11 12 12 8 3 3 3 1 2 6 6 9 15 18 21 22 18 17 17 16 15 13 15 15 9 4 5 4 5 11 10 3 3 5 10 10 8 13 13 15 15 11 9 4 7 8 0 2 6 9 4 2 3 7 5 4 10 14 18 22 23 24
18 18 18 17 14 14 14 13 14 13 13 13 13 13 13 13 12 12 13 13 14 15 14 15 13 11 12 11 12 10 10 16 11 3 0 3 2 5 9 17 22 24 21 19 19 18 18 17 18 16 9 3 5 7 7 9 8 6 4 4 9 13 15 18 19 21 22 17 16 14 13 12 4 1 4 6 2 3 5 6 1 7 14 15 18 21 22 23
17 18 18 17 15 15 14 13 13 13 13 13 13 13 13 13 12 12 13 13 14 14 15 15 12 12 12 11 11 9 15 24 19 11 10 10 9 8 6 16 24 26 23 21 20 19 21 21 21 17 8 4 6 7 8 5 4 5 5 5 6 12 16 19 19 23 23 20 21 17 13 17 11 2 3 3 1 1 4 2 4 11 16 18 19 21 21 22
18 19 19 18 16 14 14 14 13 13 13 13 13 13 13 12 12 12 12 13 14 14 15 14 12 11 11 11 8 8 17 24 20 18 17 15 15 11 8 14 24 27 24 21 18 19 21 22 23 17 8 8 7 5 8 6 4 6 9 8 7 12 16 16 17 21 20 18 16 9 10 18 12 2 3 1 4 3 1 3 8 13 18 20 20 19 20 21
20 21 20 19 16 14 15 14 14 13 13 13 13 13 12 12 12 12 12 13 14 15 15 13 12 11 11 11 5 5 16 18 15 17 16 15 15 11 9 14 23 25 23 20 19 20 22 23 25 17 6 7 7 4 7 7 5 7 11 11 11 16 17 14 14 19 15 13 13 7 8 11 4 1 4 2 5 6 5 9 12 15 19 21 21 20 20 20
20 19 18 17 15 14 14 14 14 14 13 13 13 13 12 12 12 11 12 12 14 14 14 13 11 11 11 11 8 9 14 12 9 11 10 11 11 10 9 13 18 21 20 19 19 20 22 22 22 16 3 4 6 4 6 8 8 6 6 6 10 12 14 11 12 17 10 7 13 12 7 4 2 2 3 2 6 7 7 11 15 17 19 22 22 21 21 22
19 15 14 16 16 14 13 13 14 14 13 13 13 13 12 13 12 12 12 12 14 14 13 12 10 11 11 12 18 20 15 10 8 6 5 7 8 8 8 11 13 15 15 16 18 20 21 17 18 16 5 4 5 1 4 9 8 4 3 3 7 6 8 9 8 11 7 3 9 10 2 5 2 3 2 4 10 10 9 13 16 17 18 21 22 22 22 23
20 15 13 14 15 15 15 14 13 14 14 13 13 12 12 13 12 12 13 12 13 13 13 11 10 10 8 13 25 24 15 12 12 8 6 6 8 10 10 11 11 10 10 11 14 18 19 16 18 16 6 4 3 0 1 4 4 3 1 2 4 6 6 6 3 4 6 3 6 10 1 6 5 7 4 7 13 13 12 16 17 18 19 21 23 23 23 23
21 18 15 13 14 13 15 15 13 13 14 14 13 12 13 13 12 13 12 13 13 12 12 10 9 8 8 17 26 22 16 17 19 15 10 7 10 14 14 14 12 11 11 10 11 14 17 17 17 12 4 4 4 3 3 3 1 1 1 1 2 1 4 7 3 3 6 3 7 11 2 5 5 8 7 10 15 15 16 17 19 20 20 21 23 23 23 23
21 18 16 16 15 12 14 16 14 13 13 14 13 13 13 13 13 13 13 13 12 11 10 9 9 6 8 20 23 18 17 21 23 19 15 13 13 16 17 16 14 12 12 11 9 9 16 21 16 8 5 6 5 2 2 3 3 2 2 2 3 2 5 8 4 4 4 2 5 7 1 5 6 7 6 11 16 16 16 18 20 21 21 21 21 21 22 22
20 16 14 16 15 12 14 15 14 14 14 14 13 13 13 13 13 13 14 13 10 9 8 7 7 5 6 14 14 12 17 22 22 20 18 16 15 14 14 14 13 11 10 9 9 8 13 19 14 8 6 3 3 3 3 1 3 4 2 2 1 2 3 4 2 2 1 1 2 3 2 2 4 5 2 11 17 15 15 17 20 21 20 20 19 20 21 21
17 14 14 15 14 13 14 15 14 14 14 14 14 12 12 13 14 13 11 10 9 7 5 2 1 4 9 11 11 11 15 19 19 20 20 18 15 13 12 13 13 12 10 12 13 10 11 14 10 6 5 1 3 4 3 2 2 2 1 2 2 2 1 2 2 3 3 4 1 1 2 4 4 6 5 3 10 11 11 12 15 17 17 18 19 19 20 20
15 14 15 16 15 13 13 15 14 13 14 14 13 12 11 11 11 10 9 8 7 4 3 4 5 1 10 15 14 10 7 8 12 17 20 19 16 14 12 12 13 15 13 12 11 10 10 9 4 2 2 2 2 5 4 5 4 3 2 3 1 1 1 2 3 2 5 4 0 0 3 4 5 9 14 12 4 2 1 1 6 10 13 16 18 18 18 19
14 14 15 16 15 13 13 14 14 13 14 14 12 9 7 7 5 4 7 11 11 6 2 9 14 6 3 6 10 12 8 5 7 15 21 20 18 16 12 10 13 17 13 8 7 10 9 4 2 3 3 4 5 5 6 6 7 7 5 5 4 1 3 5 5 5 1 3 2 5 4 2 7 9 14 16 11 9 10 7 1 5 10 12 13 14 16 19
15 14 15 15 14 13 14 14 13 13 14 13 10 5 2 4 2 0 5 14 18 14 8 10 21 19 8 2 0 8 10 7 6 14 20 20 21 19 14 11 12 12 9 6 6 8 9 5 2 5 5 6 7 7 7 6 6 7 5 5 4 2 3 5 6 5 3 3 4 4 4 8 8 7 10 15 18 18 14 9 5 2 7 8 9 12 16 19
14 15 15 15 15 14 14 13 13 12 12 12 10 5 2 4 1 1 2 11 20 23 22 21 21 23 22 14 10 10 9 6 6 13 19 21 23 19 13 12 7 5 5 6 7 6 7 5 5 7 8 8 7 6 7 7 6 6 5 5 3 2 4 6 6 5 1 3 3 3 11 8 6 5 10 16 17 15 15 12 10 4 4 7 9 12 15 17
16 16 15 14 15 14 12 13 13 11 11 11 10 5 4 6 4 4 6 9 16 20 24 27 27 31 32 27 25 21 12 6 7 12 19 23 24 17 11 9 4 4 4 5 7 5 4 3 7 8 6 5 5 4 8 7 6 5 4 4 1 2 3 6 5 5 3 2 0 7 12 6 6 4 8 15 12 11 16 16 16 11 3 5 8 10 12 15
16 15 15 15 14 13 13 13 11 10 11 10 8 2 4 5 6 6 6 6 13 18 19 24 29 35 36 30 27 21 11 8 8 11 20 23 22 18 13 8 4 5 5 5 7 6 3 5 7 6 7 8 6 4 7 6 4 4 4 4 1 3 1 3 4 5 3 3 3 8 10 5 6 5 7 13 13 16 21 20 21 18 8 2 6 8 10 13
15 14 15 14 14 13 13 11 9 10 11 7 3 2 2 6 7 5 5 4 8 12 15 20 23 29 33 27 18 14 13 13 10 10 21 25 21 17 13 8 5 4 4 6 9 7 4 5 6 8 6 7 6 4 6 6 2 1 3 5 3 3 3 4 4 5 4 4 4 7 8 5 6 7 6 9 13 18 22 23 23 21 13 4 4 6 8 10
15 14 14 14 14 13 11 10 8 9 9 3 2 2 2 7 8 5 3 3 5 6 8 11 15 22 27 20 14 13 10 12 14 13 21 28 24 15 10 9 6 3 4 7 9 6 5 4 9 9 4 6 7 4 5 6 4 1 3 6 6 6 5 5 3 5 5 3 1 4 6 2 6 7 6 6 9 13 17 20 21 20 17 11 5 1 4 6
15 13 13 13 14 12 10 8 6 6 4 2 3 1 4 7 7 3 1 2 4 3 3 7 10 13 16 15 17 14 4 7 15 17 21 26 26 18 9 7 4 3 6 6 5 2 2 5 8 8 6 6 6 3 4 5 6 1 5 8 8 6 4 5 2 2 2 2 1 3 6 2 4 6 7 6 6 9 12 16 17 19 18 15 13 9 4 2
15 13 13 13 13 11 10 7 5 5 2 4 3 1 4 6 3 3 3 3 4 3 4 7 8 8 12 15 20 14 1 6 13 15 22 24 23 18 9 4 3 4 5 5 3 2 3 7 5 5 6 5 4 3 5 6 8 3 6 8 8 6 6 5 3 3 1 3 1 4 5 5 0 3 6 5 5 10 13 14 15 17 18 16 15 14 12 10
16 14 13 13 11 10 10 9 7 5 4 4 3 3 3 3 3 5 2 2 2 3 3 6 7 8 9 13 25 17 3 13 14 11 23 24 19 14 7 5 6 5 5 6 4 3 4 7 7 6 5 3 4 5 8 9 6 5 5 8 8 6 6 5 5 3 2 0 2 6 5 5 1 3 5 4 6 10 12 12 12 15 17 16 15 15 15 13
16 15 13 12 11 9 9 10 6 2 6 5 4 4 2 1 5 4 1 2 3 1 1 6 7 8 9 12 22 18 6 9 8 10 23 22 17 11 5 7 9 7 4 5 6 4 2 7 10 9 5 5 6 6 10 11 4 5 5 7 4 5 4 4 5 3 3 3 3 5 4 4 1 3 3 3 5 7 8 8 9 13 17 17 16 16 16 15
15 14 12 12 11 8 9 9 4 4 7 6 4 3 1 4 4 1 1 3 3 1 1 6 6 8 13 10 10 12 5 1 6 13 18 16 15 11 7 9 8 6 3 4 4 3 2 3 7 7 6 7 6 5 10 12 7 6 7 6 6 5 5 3 3 3 4 2 4 5 3 4 2 2 3 3 3 3 4 5 6 10 15 18 17 17 16 16
15 13 13 12 9 8 9 6 4 7 7 5 4 3 3 3 2 1 3 2 2 2 2 3 3 6 13 9 6 8 4 1 7 13 10 7 10 8 7 7 4 4 3 3 2 3 5 2 3 4 7 6 6 4 4 6 5 7 5 5 5 3 4 4 4 4 4 2 5 4 4 5 3 1 2 4 4 4 3 4 6 8 12 17 19 19 17 17
15 13 13 11 10 9 6 3 6 9 6 4 5 4 4 2 1 2 3 4 2 3 2 1 3 4 9 8 7 8 4 1 3 7 7 5 5 4 4 4 3 4 2 2 1 3 3 2 3 3 5 7 7 4 2 1 2 5 5 6 6 1 2 2 2 1 2 3 3 4 3 4 2 0 2 4 5 5 5 6 7 9 13 18 20 20 20 20
15 14 12 10 11 10 8 6 8 8 4 4 5 4 3 1 2 5 4 4 1 3 5 2 2 4 7 6 5 7 5 3 2 4 6 5 5 4 1 2 6 6 2 4 3 1 1 5 4 1 3 7 9 5 3 2 3 5 5 6 6 3 3 2 1 0 1 2 2 5 3 2 1 1 2 3 5 6 7 10 12 13 15 17 19 20 21 23
14 13 11 10 11 10 9 9 9 8 5 5 5 3 2 1 3 3 3 3 2 4 6 3 1 5 7 6 4 6 4 2 3 5 5 5 6 5 1 1 4 5 4 4 3 3 4 3 4 4 3 7 9 6 7 7 5 5 4 6 6 4 5 4 3 3 2 1 3 5 3 2 2 1 0 1 5 8 11 12 14 16 16 17 20 22 22 23
13 12 12 11 11 10 10 12 12 10 8 7 4 2 2 4 3 0 1 1 1 3 6 6 1 4 5 3 3 7 4 1 3 5 4 6 5 5 4 2 3 4 5 4 2 2 4 4 7 3 2 8 9 5 6 8 4 2 3 6 4 5 5 3 3 4 5 2 3 3 0 1 1 2 1 0 5 10 11 12 12 14 16 18 20 21 21 21
12 10 11 10 9 9 11 14 15 14 12 7 4 1 3 3 1 0 2 3 1 3 6 8 3 4 4 1 3 5 2 2 4 3 2 4 4 4 6 4 4 5 4 5 3 1 4 3 6 1 2 6 7 6 6 7 4 2 3 4 4 4 7 6 2 1 4 4 1 2 1 1 1 1 1 1 5 9 9 10 12 13 15 18 18 18 18 19
11 9 7 5 7 10 12 16 17 16 13 6 3 3 3 2 3 4 3 3 6 7 6 5 1 5 4 2 4 6 2 3 4 3 1 2 1 3 5 3 3 7 6 5 2 2 4 2 5 1 4 5 5 8 5 3 5 5 4 5 3 3 5 5 3 3 4 3 0 2 1 2 1 1 1 2 6 8 7 9 12 13 15 16 15 17 17 17
11 9 5 2 8 11 12 16 18 16 10 3 1 3 2 2 4 5 5 3 6 9 5 4 2 4 5 4 4 5 4 3 3 3 3 1 1 3 5 3 3 7 9 7 2 1 4 1 6 2 2 2 3 8 5 5 3 4 6 5 4 4 2 2 3 3 3 2 1 0 2 1 2 2 2 4 7 8 7 8 10 12 13 13 14 16 18 18
8 7 4 2 8 9 9 15 18 14 6 2 3 3 2 3 5 9 11 7 5 7 5 4 3 3 4 5 5 4 5 5 4 3 3 1 0 1 2 2 3 7 11 9 4 1 2 3 2 3 1 0 3 4 3 1 6 6 5 3 2 3 4 3 3 3 4 4 2 2 2 2 4 3 2 4 7 8 7 7 9 11 13 13 14 15 17 18
5 5 2 4 8 8 10 16 16 9 3 2 4 2 2 3 3 10 18 11 4 5 5 2 2 3 3 4 6 5 4 5 4 3 1 2 2 0 1 1 2 4 6 7 5 1 2 3 2 4 4 1 1 0 4 6 3 4 4 2 1 2 3 3 2 2 4 5 3 3 2 4 4 2 2 3 6 8 8 8 9 12 13 13 15 16 16 17
3 2 1 5 7 11 16 16 9 4 2 1 2 1 2 4 3 10 21 16 7 8 8 4 1 3 3 4 5 4 3 4 3 2 1 1 3 2 1 2 1 4 4 3 3 2 1 2 3 1 4 2 2 4 4 6 5 5 4 4 4 4 4 4 2 1 3 4 4 5 3 4 2 0 1 3 5 7 10 11 12 13 14 14 15 16 16 17
2 1 1 5 12 18 17 8 2 1 2 1 2 2 3 4 3 7 15 14 8 7 6 2 1 2 2 2 3 3 4 3 2 2 2 1 2 3 2 4 1 6 5 3 3 3 3 4 4 1 1 1 3 3 0 3 6 8 4 2 3 4 5 6 4 3 3 3 2 3 2 2 0 3 4 5 7 11 13 13 14 14 13 13 14 15 14 14
2 1 4 11 17 15 8 1 1 1 1 2 3 4 5 3 3 6 9 8 4 3 1 1 0 2 2 2 3 4 4 4 3 2 3 2 2 1 4 4 3 5 5 3 2 1 2 4 4 1 3 3 3 4 4 4 7 7 4 3 3 2 3 5 5 4 4 3 2 3 1 2 2 4 7 8 11 14 13 13 16 14 11 12 14 14 13 12
3 1 6 17 17 5 1 2 2 2 3 3 3 4 5 4 4 7 7 4 3 2 2 2 1 2 1 2 4 4 4 3 3 2 2 3 1 2 8 7 5 4 2 3 6 4 2 1 4 3 3 4 4 5 5 5 5 4 2 4 2 3 5 4 2 4 4 4 4 4 2 2 3 5 8 9 10 13 12 13 16 13 10 11 13 13 12 11
2 3 6 17 14 2 2 2 2 2 1 2 2 4 4 4 7 12 9 4 4 3 1 2 1 2 3 3 5 5 4 4 2 1 2 2 1 3 9 10 5 2 2 4 7 8 4 1 3 5 4 3 1 1 1 0 2 2 2 5 5 4 5 4 3 4 3 5 4 4 3 3 5 7 8 7 8 9 9 13 16 12 10 11 12 12 12 11
0 1 4 9 11 6 5 4 2 2 2 2 2 3 2 2 5 8 7 3 3 3 2 3 2 3 5 5 7 6 7 6 5 3 3 2 0 2 6 10 9 8 9 10 11 9 5 3 4 5 5 4 4 3 2 2 3 2 3 6 6 4 2 4 5 2 4 5 2 3 5 7 7 7 7 7 7 6 6 12 14 10 9 11 10 10 11 11
1 1 3 4 5 6 7 7 3 2 2 2 1 2 3 3 4 4 2 1 3 4 3 3 5 4 4 5 6 4 5 7 7 5 3 1 1 0 5 9 10 9 8 8 8 6 5 3 4 7 8 3 1 2 3 5 6 4 4 6 7 5 3 5 5 3 6 7 1 4 7 8 8 7 7 7 6 5 7 12 12 9 9 10 10 10 10 11
1 1 2 4 3 3 4 5 5 4 2 1 1 2 2 3 3 1 2 3 4 6 3 3 7 6 2 3 5 3 3 5 6 4 2 2 1 1 5 6 8 9 6 5 6 5 6 3 2 5 9 7 5 5 7 10 9 8 9 9 9 7 5 5 3 2 4 5 4 8 10 7 6 7 6 6 7 8 10 12 11 9 9 10 10 11 11 12
2 3 2 3 2 2 3 2 4 5 3 2 1 2 1 2 3 1 2 2 4 7 4 3 6 7 4 4 5 4 1 4 3 1 1 2 2 2 4 3 5 8 7 5 4 3 5 3 1 5 9 9 8 6 6 10 9 9 11 10 9 9 8 7 4 2 5 5 5 12 13 7 5 6 7 9 10 11 12 12 11 10 10 11 12 12 12 13
1 3 2 1 1 1 2 1 4 4 1 2 2 3 2 2 1 0 2 2 1 3 4 6 3 5 7 7 7 4 1 5 6 3 4 3 2 1 2 2 0 6 6 3 2 3 4 3 3 3 6 6 7 7 8 10 11 11 11 10 10 8 8 7 4 4 7 7 9 13 11 6 4 7 10 12 12 12 12 12 11 11 11 12 12 11 12 13
4 4 3 3 2 0 1 1 3 4 0 1 2 3 2 2 1 2 4 5 3 2 3 6 6 5 8 9 10 6 0 3 7 5 6 6 5 3 2 2 3 2 4 3 2 3 4 5 2 3 5 2 2 5 6 7 11 11 9 10 10 7 5 5 4 4 2 7 12 11 6 3 4 8 10 11 12 12 11 11 11 11 12 12 11 11 11 12
5 3 4 3 1 1 1 2 3 2 2 3 4 3 2 3 2 3 4 7 7 6 5 7 7 6 6 9 8 4 2 7 12 14 15 17 17 14 11 10 8 5 3 2 3 3 3 6 4 2 5 2 3 1 3 4 5 5 4 5 4 2 4 4 5 6 4 4 8 5 4 5 7 8 8 8 9 10 10 11 11 11 12 11 10 10 10 11
Wind_Direction
297 300 301 298 299 300 296 300 304 300 298 295 288 283 285 286 283 281 281 282 283 282 279 279 279 282 285 286 284 281 281 278 275 271 261 251 246 246 245 245 246 245 238 225 213 203 200 200 197 193 190 182 180 186 192 199 183 164 121 128 201 198 205 186 191 198 209 283 290 321 341 344 267 105 114 104 94 121 131 89 97 182 270 297 256 257 184 164
295 290 296 296 295 297 295 298 303 302 297 296 294 288 284 283 282 282 283 285 286 282 279 279 280 283 285 285 284 285 286 284 284 271 255 252 256 253 245 243 244 243 235 227 219 208 205 204 198 193 186 175 174 182 190 200 194 177 110 147 212 207 216 201 207 223 244 279 298 310 325 342 264 168 140 133 76 116 134 73 102 133 188 225 226 180 169 163
303 294 291 289 293 298 295 291 296 302 298 293 294 294 290 286 285 285 285 286 287 282 279 279 281 285 285 284 284 289 292 296 293 271 257 259 259 253 245 237 235 240 234 226 217 206 206 205 203 195 180 171 171 177 183 189 195 199 147 163 235 223 247 254 243 247 263 279 296 302 318 345 303 269 152 147 101 87 191 192 140 132 148 161 157 157 163 162
307 304 297 289 289 297 299 295 292 297 300 295 291 293 291 291 289 287 287 287 286 281 278 278 280 283 284 284 284 291 303 310 294 272 267 265 253 247 243 233 228 235 230 215 207 200 201 201 202 192 179 171 171 175 182 189 186 195 171 184 238 199 240 262 257 263 273 277 274 285 308 326 307 294 157 126 95 329 262 229 219 181 162 152 150 157 164 167
303 300 300 296 296 301 300 299 296 296 300 297 293 288 286 289 289 288 290 287 283 280 277 278 278 281 282 280 282 288 318 334 289 266 268 253 238 238 236 230 221 227 224 207 200 197 199 196 186 179 177 173 164 169 207 204 188 186 206 209 235 214 241 270 278 281 284 282 268 276 311 309 153 134 158 136 130 255 290 274 251 213 175 159 157 163 171 175
303 299 296 294 296 301 300 299 299 295 295 299 297 292 289 288 288 290 290 284 281 278 277 277 276 279 279 278 280 272 243 258 253 186 204 191 213 242 234 225 211 213 215 202 196 194 194 184 173 170 169 164 168 178 212 210 199 216 267 224 237 241 248 272 281 285 291 299 291 279 312 305 196 115 174 169 174 230 312 299 282 186 169 166 165 171 178 182
303 303 300 297 296 297 297 298 300 297 293 297 298 295 295 291 288 288 286 283 279 277 277 276 277 277 276 276 275 260 236 243 232 158 221 207 247 298 241 219 203 201 206 200 194 192 188 177 175 173 155 151 185 198 215 215 205 213 261 254 249 250 251 266 278 288 293 296 293 293 308 300 282 61 190 195 241 295 295 297 315 147 164 169 171 176 184 189
302 303 302 303 303 300 297 296 300 299 295 298 297 291 290 289 287 286 285 282 278 278 276 275 277 275 273 271 269 263 246 245 240 238 266 267 271 299 263 212 195 194 202 205 202 194 186 177 179 173 157 184 181 194 208 214 225 206 232 256 262 258 260 275 285 290 292 293 293 297 299 287 290 358 187 193 95 282 290 316 124 150 163 168 174 181 188 194
298 299 300 303 304 301 296 294 296 294 291 296 295 286 285 287 288 287 283 280 278 277 274 274 274 270 271 267 264 267 255 254 261 262 261 261 262 276 271 212 192 192 198 204 206 197 187 182 183 174 174 194 167 184 188 184 243 210 217 239 259 265 272 285 288 286 288 290 290 298 286 281 296 326 259 313 105 144 168 127 140 153 162 169 179 188 194 200
297 299 303 306 305 301 297 294 296 295 290 295 294 285 285 287 288 287 284 281 278 276 274 273 270 265 267 261 242 247 260 263 272 267 254 251 251 256 251 209 193 192 193 196 199 199 196 193 186 170 156 181 173 211 183 176 230 219 215 230 249 261 277 284 281 283 284 285 270 242 259 275 317 337 269 315 127 147 147 137 149 159 164 173 184 194 203 206
304 307 311 311 307 302 301 299 301 299 291 294 292 282 285 287 286 286 284 282 278 276 274 271 269 264 260 251 220 226 256 263 263 266 253 236 233 239 226 199 193 193 192 195 198 205 205 199 182 167 149 167 176 218 205 209 232 235 208 230 262 267 285 276 264 274 265 277 258 219 236 297 52 163 227 205 154 162 164 146 157 165 167 178 188 199 206 205
308 310 312 312 308 300 296 296 299 300 292 292 290 282 283 284 283 285 283 281 278 276 271 270 269 263 263 254 238 235 246 254 256 254 217 201 203 216 208 189 191 194 196 200 202 207 205 192 174 173 179 154 160 189 221 222 223 238 188 230 292 326 315 261 247 262 216 230 245 194 224 311 247 233 231 189 173 171 168 157 164 169 171 181 191 202 204 203
309 306 303 308 310 307 302 297 296 301 297 289 285 281 281 281 285 288 283 279 275 271 269 269 264 261 267 257 248 245 246 248 253 231 184 179 182 188 194 192 194 197 207 213 211 210 199 183 177 180 170 144 172 208 262 237 206 236 167 165 308 1 331 262 251 239 184 229 207 155 211 276 260 273 242 186 184 173 159 160 169 174 177 184 193 202 201 202
310 306 300 297 297 302 307 304 297 300 299 288 280 277 281 282 286 286 281 277 271 268 269 265 259 253 253 256 256 258 251 244 248 235 208 205 188 185 194 198 202 205 213 218 220 216 196 183 186 192 211 227 238 267 323 352 85 222 155 77 0 26 285 295 317 163 157 235 176 142 233 262 265 267 224 194 192 179 163 167 177 180 183 190 195 199 200 204
311 310 308 300 292 295 307 306 300 299 297 289 279 278 283 283 286 282 276 272 267 266 263 260 256 239 258 267 264 264 252 240 239 228 216 218 198 190 195 197 204 210 215 212 210 209 192 191 197 211 251 248 237 258 338 3 15 37 146 301 350 155 263 305 319 164 154 234 160 131 241 271 277 269 233 199 197 188 175 176 183 185 188 192 196 198 201 206
310 310 312 309 303 305 306 303 303 301 295 288 281 281 285 285 282 275 272 269 265 264 254 259 259 224 266 277 264 258 246 234 229 221 218 216 202 197 198 201 207 205 204 190 171 161 174 190 203 222 239 224 167 125 58 38 338 2 132 214 264 157 266 301 323 269 175 104 86 109 170 251 297 306 249 194 196 191 184 186 186 187 190 192 196 201 203 207
310 305 307 305 299 300 304 304 306 307 300 289 283 285 288 287 280 272 270 260 247 237 217 224 275 229 249 264 261 250 239 234 229 220 214 205 201 206 200 197 196 184 172 163 161 149 154 178 193 220 228 146 127 118 102 199 239 326 41 137 211 184 222 269 302 318 58 89 21 23 186 224 277 317 356 198 206 199 190 194 192 188 189 191 199 204 203 207
311 305 303 299 294 296 304 308 308 307 301 289 286 293 295 288 278 267 251 227 205 176 186 175 116 57 253 250 254 240 225 245 234 217 208 201 200 205 204 196 179 165 150 146 170 171 163 175 165 163 187 149 143 121 146 206 186 175 140 126 120 356 269 262 271 283 39 43 327 277 237 250 304 332 2 6 329 259 319 269 198 195 194 197 203 204 200 207
306 305 307 305 305 305 304 307 308 305 298 290 292 298 299 295 282 258 219 192 171 151 184 194 177 178 279 259 249 236 242 268 227 209 203 199 198 199 204 193 168 159 144 131 171 177 163 155 117 148 181 182 176 152 170 194 163 154 149 135 123 51 270 258 258 251 76 71 209 215 221 36 15 352 356 5 27 37 13 14 86 191 203 208 205 199 200 212
305 304 305 308 308 305 304 306 307 305 297 292 298 296 296 310 293 160 200 204 211 218 237 219 204 216 252 351 264 236 247 252 222 205 199 197 196 192 188 179 161 151 148 141 158 171 160 149 170 181 190 194 191 176 163 158 138 130 112 102 116 135 280 264 260 269 140 128 244 212 104 58 34 2 348 9 37 35 13 14 41 154 201 217 212 204 208 217
302 300 302 307 306 307 310 311 305 299 295 292 298 307 37 26 8 16 295 247 246 243 245 249 237 240 255 258 265 287 296 279 231 199 196 197 192 186 180 177 156 133 168 144 125 140 147 159 211 203 195 187 181 165 136 121 107 101 109 94 81 192 264 259 254 303 76 141 280 78 81 55 19 12 8 23 37 26 14 25 30 38 190 208 211 210 211 218
299 301 305 307 308 310 308 307 302 296 294 288 296 316 75 57 23 330 315 283 273 261 248 249 249 252 257 254 257 277 299 289 245 199 189 189 187 183 172 168 152 141 165 117 107 121 131 188 227 208 179 125 95 114 115 109 102 87 111 106 48 236 280 287 278 332 21 127 347 77 82 45 341 357 31 34 36 25 28 39 40 41 89 190 203 209 212 219
304 304 307 306 310 313 304 301 303 298 289 284 303 350 98 38 2 311 286 277 283 274 253 243 241 245 252 253 254 259 256 248 258 215 187 182 181 177 160 148 150 148 142 127 131 135 145 230 222 177 141 112 80 85 103 93 91 85 112 126 244 258 326 297 284 336 12 93 122 109 90 47 349 0 38 36 31 30 31 38 40 40 51 168 208 215 221 224
304 304 307 309 312 311 307 307 306 292 281 286 329 99 101 4 358 317 271 257 282 276 259 247 237 237 244 249 248 240 231 230 245 219 188 179 171 167 161 150 141 139 152 147 134 137 184 222 168 134 137 136 110 107 122 112 103 87 136 140 177 230 201 223 276 332 359 52 101 114 79 26 352 10 19 17 28 33 27 31 34 31 37 65 184 203 223 234
306 308 311 313 311 307 307 309 297 280 276 291 88 149 9 360 352 330 285 272 282 271 264 241 227 236 239 238 234 224 223 228 230 212 189 183 172 158 158 160 148 147 163 140 125 143 208 195 134 126 151 147 122 139 167 147 141 240 221 180 187 194 204 240 298 9 34 36 349 94 80 6 322 7 13 352 21 35 28 31 31 24 29 36 44 102 218 232
307 307 308 307 309 312 310 304 284 274 274 161 147 179 351 350 337 310 150 344 293 239 213 193 204 227 219 212 211 203 204 238 222 203 188 187 180 163 151 156 143 153 158 137 130 150 189 163 136 130 150 149 133 162 205 155 128 204 232 195 186 167 181 246 246 72 85 185 247 84 109 151 304 355 359 342 18 37 33 34 29 25 27 27 27 27 26 37
307 304 303 301 307 315 308 291 264 266 227 152 180 256 327 325 309 178 129 359 279 191 139 170 187 193 194 195 183 170 121 188 186 193 190 187 182 170 158 160 128 148 158 122 144 212 153 154 137 117 130 139 146 180 214 155 124 217 232 171 159 152 173 207 148 119 228 217 319 24 97 124 102 326 323 327 21 32 30 30 25 24 27 28 30 30 31 41
306 302 303 302 303 308 299 282 266 255 180 165 217 241 301 305 179 157 113 350 242 161 131 169 170 170 183 182 174 172 171 154 151 194 193 185 183 167 152 176 146 144 158 125 161 221 150 162 168 146 133 152 183 196 190 154 137 237 214 143 154 157 164 160 110 101 349 66 287 338 47 102 159 288 313 347 33 30 23 24 19 20 28 33 36 36 38 44
302 301 303 304 302 299 289 280 276 204 184 199 223 232 280 179 163 153 67 279 216 192 138 157 156 164 158 158 176 189 194 151 144 179 181 180 186 173 150 175 150 132 142 125 167 200 149 185 181 152 146 194 205 193 169 161 181 219 149 103 101 87 82 91 102 112 39 53 244 300 17 106 203 307 346 16 35 23 10 19 15 17 34 43 44 46 48 50
303 303 302 302 302 296 280 276 266 181 196 210 209 220 233 153 151 128 242 248 238 275 80 154 170 163 148 143 185 206 221 148 121 144 162 170 173 166 143 152 140 119 90 66 156 203 348 188 173 155 178 194 185 171 168 173 170 145 119 75 60 49 37 43 57 89 70 10 261 283 343 100 126 322 24 39 39 22 3 23 21 20 35 45 50 54 56 56
304 302 297 293 292 285 276 270 217 197 200 202 202 198 172 152 110 149 205 263 286 304 39 162 196 150 152 154 177 198 222 1 122 133 147 156 153 146 124 132 113 91 86 63 155 291 352 71 172 201 197 164 119 116 166 179 140 111 110 97 86 23 14 26 356 49 91 260 271 304 354 68 107 242 38 47 59 55 38 44 33 27 37 45 51 55 55 58
296 294 292 285 277 267 251 195 172 185 186 186 189 170 147 139 319 217 251 339 338 274 319 188 202 158 166 168 161 176 170 72 136 132 140 146 142 147 135 153 150 106 142 184 148 328 326 236 270 283 202 161 120 87 59 39 87 99 108 119 119 60 35 41 312 50 141 231 279 329 0 62 87 100 40 46 64 66 66 66 49 41 45 48 51 51 52 58
290 288 286 276 269 252 216 183 175 176 173 167 161 144 117 102 236 222 261 317 330 298 320 304 198 149 161 169 162 167 146 127 172 133 136 136 133 161 133 143 156 135 163 187 136 84 251 278 291 334 228 180 147 130 130 159 159 138 136 142 143 127 120 162 253 336 207 223 311 334 13 84 103 85 57 58 84 84 76 70 60 56 54 52 53 52 53 58
291 288 282 263 253 239 208 197 193 184 181 163 138 107 111 198 244 212 220 253 297 307 306 304 135 132 160 179 166 158 135 98 157 133 129 134 138 168 135 13 168 137 110 143 150 148 151 255 232 181 208 178 162 168 167 153 148 160 153 135 148 155 142 170 195 168 177 179 334 344 33 128 193 135 347 43 102 90 76 70 65 63 60 56 56 54 53 55
292 285 277 257 241 232 209 195 192 187 179 165 128 96 168 221 256 327 250 288 346 277 289 307 352 136 169 181 152 164 146 66 150 126 125 151 152 173 169 184 195 137 110 145 192 143 134 225 244 228 159 162 172 188 145 122 116 181 133 106 156 185 139 125 174 162 150 121 5 345 77 187 216 177 260 267 107 92 81 76 69 63 58 54 53 50 48 51
295 285 275 257 230 220 206 193 188 183 178 163 120 146 216 231 220 194 295 319 282 258 305 315 301 148 163 156 161 187 153 103 154 120 108 158 154 168 174 196 189 151 133 148 184 123 119 246 278 308 177 184 175 169 146 141 144 124 123 152 204 176 117 116 153 68 91 112 44 307 187 92 351 223 268 101 116 102 90 83 73 62 55 50 46 44 42 45
307 307 291 248 206 203 197 192 189 182 176 160 133 199 229 232 207 221 263 326 297 281 294 296 247 140 160 164 167 187 159 123 155 131 135 172 170 167 174 211 176 162 171 157 177 198 144 244 294 150 194 238 157 126 95 98 133 125 156 185 180 97 88 109 122 34 50 106 250 318 148 135 153 218 260 185 142 116 96 84 72 59 53 49 44 40 39 43
322 330 324 192 191 196 190 189 186 176 165 145 190 231 237 227 239 264 286 311 290 279 266 230 200 139 163 169 167 183 169 161 163 129 140 179 257 157 158 190 166 174 188 161 123 240 129 150 294 269 175 280 90 105 72 12 39 122 153 150 118 121 129 93 122 134 100 111 205 8 102 167 203 210 228 197 157 127 105 91 77 63 55 48 42 39 39 45
327 326 324 165 181 189 184 181 176 166 150 136 202 225 250 239 252 278 277 267 257 266 253 215 206 144 159 167 159 165 163 168 167 131 128 144 163 160 171 190 168 186 192 164 133 203 118 112 271 279 230 42 36 80 134 52 21 53 102 95 59 129 154 150 138 145 132 137 181 153 131 234 225 214 217 180 151 135 121 103 87 76 66 55 47 42 39 42
317 307 320 138 164 174 166 165 165 164 156 168 201 221 284 267 275 281 272 262 242 253 252 238 200 132 149 165 153 151 145 143 144 130 112 109 109 157 290 52 128 180 190 173 157 141 68 100 172 291 329 69 105 199 181 171 109 77 96 103 54 76 114 133 90 77 120 138 154 141 176 252 240 219 228 153 136 132 120 104 88 79 72 63 56 49 42 41
307 285 165 141 156 158 153 154 162 181 180 179 204 211 278 291 311 287 279 276 265 247 245 249 212 136 133 147 145 139 112 100 105 104 106 99 103 128 341 11 148 156 139 158 176 157 116 125 155 309 4 56 234 267 222 189 160 133 139 162 153 122 115 118 101 14 98 124 156 155 183 257 265 178 92 96 110 113 110 103 90 78 71 63 58 55 47 43
293 191 150 146 149 150 147 147 188 176 141 187 245 255 272 291 294 278 284 288 272 242 236 242 209 115 105 132 138 121 99 77 59 95 132 130 141 173 282 334 177 151 126 141 196 184 150 101 94 69 11 185 250 310 59 147 114 98 98 141 134 119 119 125 167 201 97 94 142 123 128 249 354 73 79 77 81 89 98 101 92 78 69 64 61 59 52 45
252 141 105 137 145 147 142 91 313 213 216 248 277 276 255 262 280 269 280 291 277 257 294 337 77 91 83 106 112 113 109 79 54 97 131 119 138 218 331 0 137 136 105 129 194 177 124 84 85 38 314 309 307 346 16 50 74 76 45 29 83 114 130 139 167 161 122 143 142 83 87 196 120 92 91 89 84 81 82 88 88 80 69 65 63 61 57 48
280 56 117 145 150 142 104 157 175 217 258 282 313 288 259 239 243 253 267 295 300 301 344 346 357 56 41 74 93 109 124 97 55 55 108 114 144 341 8 40 130 149 105 174 179 163 161 88 91 94 20 359 0 359 359 12 40 72 38 351 0 105 110 120 123 85 109 185 158 119 175 195 131 112 98 93 89 82 75 79 82 76 64 63 60 60 60 55
327 45 122 161 175 245 335 183 173 157 217 288 292 273 267 250 237 240 247 279 297 284 357 353 356 52 33 56 81 65 63 90 98 119 101 76 33 350 19 43 79 111 99 137 137 131 131 91 98 122 137 149 156 236 230 36 32 50 33 359 3 64 100 125 120 82 124 188 153 133 168 149 127 121 111 105 97 89 82 78 76 68 60 63 59 57 57 55
268 65 113 173 201 245 277 262 217 150 187 229 250 263 244 238 266 255 240 256 315 327 19 0 7 51 33 51 79 50 28 54 85 113 116 75 34 325 19 49 62 70 86 90 93 105 103 60 71 101 122 161 188 218 236 132 91 57 358 6 14 10 31 99 116 142 161 151 152 197 165 142 142 138 125 116 99 93 85 74 72 63 57 62 60 57 55 50
238 198 133 160 208 239 260 263 225 166 214 193 200 295 255 245 299 301 239 240 5 17 29 15 21 43 38 59 87 61 21 47 62 77 90 78 153 287 23 51 51 50 81 80 61 82 99 61 43 65 70 72 106 77 55 77 90 86 53 31 25 5 5 87 116 197 155 129 198 222 157 139 143 136 121 111 98 92 79 72 72 63 55 62 61 55 54 49
233 284 176 159 181 209 234 247 207 189 245 256 275 321 314 294 306 306 266 290 10 22 38 26 9 15 36 81 106 94 37 54 46 40 66 38 50 15 14 36 40 40 70 60 34 84 106 72 38 81 69 45 33 51 74 86 86 72 64 48 30 25 41 87 117 221 144 138 190 164 137 124 122 117 106 100 97 92 81 76 75 66 56 60 57 49 46 43
236 310 272 178 190 202 191 203 173 174 228 253 248 285 266 275 281 262 299 348 14 10 45 68 352 352 23 71 103 98 78 104 78 349 151 57 47 62 42 36 30 35 56 59 36 80 100 75 98 102 77 45 26 29 66 89 89 64 53 47 39 43 52 67 83 77 79 93 130 127 116 93 84 101 94 92 94 91 86 79 73 64 55 54 52 45 40 38
304 337 317 276 298 238 179 150 132 142 226 234 223 261 235 222 256 275 12 51 73 343 41 87 43 24 52 64 79 78 220 156 133 161 174 126 91 110 106 167 292 22 34 50 21 30 82 135 185 98 75 41 28 51 68 84 90 71 48 37 33 36 37 39 48 54 60 77 99 106 105 91 85 97 92 89 88 83 79 74 67 61 55 53 47 39 37 37
296 305 288 287 309 160 171 141 121 123 107 219 214 250 238 229 221 108 46 29 76 103 100 122 113 65 55 58 67 72 104 125 107 116 138 126 112 115 113 152 165 67 34 43 24 15 73 128 164 74 84 56 20 72 67 69 82 71 44 26 23 29 40 36 29 17 47 124 121 113 114 127 123 110 94 84 80 76 70 66 63 57 54 52 45 38 37 38
300 278 256 267 285 244 186 118 104 129 189 202 204 233 252 257 282 100 72 22 34 72 115 139 120 76 58 59 53 39 57 91 95 97 99 94 86 83 81 78 79 89 107 101 51 21 88 129 142 101 96 135 226 268 5 25 71 61 15 357 359 37 84 62 32 12 10 121 130 126 132 129 126 119 103 88 82 78 69 62 58 55 56 54 48 43 40 41
Height
1488 1487 1486 1486 1485 1484 1483 1483 1482 1481 1481 1481 1480 1480 1480 1480 1480 1480 1479 1480 1480 1480 1480 1480 1481 1481 1481 1480 1480 1479 1479 1478 1478 1478 1476 1474 1477 1480 1481 1482 1483 1483 1484 1484 1485 1486 1487 1489 1490 1491 1492 1494 1495 1496 1497 1498 1499 1500 1503 1507 1508 1507 1504 1498 1497 1496 1493 1491 1488 1486 1487 1489 1487 1484 1483 1484 1485 1484 1486 1487 1489 1490 1491 1492 1492 1492 1493 1496
1487 1486 1486 1485 1484 1483 1482 1482 1481 1480 1480 1480 1479 1479 1479 1479 1479 1479 1478 1479 1479 1479 1479 1479 1479 1480 1480 1479 1478 1478 1478 1477 1476 1474 1472 1473 1476 1478 1479 1480 1482 1482 1483 1483 1483 1485 1486 1488 1489 1491 1492 1493 1495 1496 1497 1498 1498 1500 1503 1506 1504 1501 1497 1493 1493 1492 1491 1490 1488 1487 1487 1487 1486 1484 1483 1485 1487 1487 1487 1488 1489 1490 1491 1491 1492 1493 1495 1497
1486 1485 1484 1484 1483 1482 1481 1480 1480 1480 1479 1478 1478 1478 1478 1478 1478 1478 1477 1478 1478 1478 1478 1478 1478 1479 1478 1478 1478 1478 1476 1475 1473 1470 1469 1472 1475 1475 1477 1479 1479 1481 1481 1482 1483 1485 1486 1488 1489 1490 1492 1493 1494 1495 1496 1497 1498 1498 1501 1504 1500 1496 1494 1491 1492 1491 1491 1490 1489 1487 1487 1487 1485 1483 1483 1484 1487 1488 1488 1488 1489 1489 1490 1492 1493 1495 1496 1499
1485 1484 1483 1482 1482 1481 1480 1479 1479 1478 1478 1477 1477 1477 1477 1477 1477 1476 1476 1477 1477 1477 1477 1477 1477 1477 1478 1477 1477 1477 1476 1475 1470 1466 1467 1470 1472 1473 1474 1476 1477 1479 1480 1482 1483 1484 1486 1487 1489 1490 1491 1493 1494 1495 1496 1496 1497 1497 1498 1500 1496 1495 1493 1490 1490 1490 1490 1490 1489 1487 1487 1487 1485 1483 1483 1484 1487 1489 1487 1487 1487 1489 1490 1491 1494 1496 1497 1498
1484 1483 1482 1481 1481 1480 1479 1478 1477 1477 1477 1476 1476 1476 1476 1476 1475 1475 1475 1475 1476 1476 1475 1476 1476 1477 1477 1476 1477 1477 1478 1474 1466 1464 1466 1466 1468 1470 1471 1473 1475 1476 1479 1480 1481 1482 1484 1486 1487 1489 1491 1492 1494 1494 1495 1494 1495 1496 1495 1495 1494 1494 1492 1488 1489 1490 1489 1490 1490 1489 1487 1487 1486 1484 1484 1484 1488 1488 1486 1486 1487 1488 1489 1491 1493 1495 1497 1498
1483 1482 1481 1480 1479 1479 1478 1477 1476 1476 1475 1475 1474 1474 1474 1474 1474 1474 1474 1474 1475 1474 1474 1475 1475 1476 1476 1475 1476 1476 1477 1471 1463 1463 1464 1464 1466 1467 1468 1470 1472 1474 1477 1478 1479 1481 1482 1484 1486 1488 1489 1491 1493 1493 1493 1493 1494 1495 1494 1494 1493 1493 1491 1487 1488 1488 1488 1489 1489 1490 1488 1487 1486 1485 1485 1485 1486 1487 1486 1486 1487 1488 1490 1491 1493 1494 1495 1496
1481 1480 1479 1479 1478 1477 1477 1476 1475 1474 1474 1474 1473 1473 1473 1473 1473 1473 1473 1473 1473 1473 1473 1473 1474 1475 1474 1475 1474 1475 1475 1467 1462 1464 1464 1464 1465 1465 1467 1468 1470 1472 1474 1476 1477 1479 1480 1483 1485 1486 1488 1490 1491 1491 1491 1492 1493 1494 1494 1493 1492 1492 1489 1487 1488 1486 1487 1487 1486 1487 1488 1487 1486 1486 1486 1486 1486 1486 1486 1486 1486 1488 1490 1491 1492 1493 1494 1495
1480 1479 1478 1477 1476 1475 1475 1474 1474 1473 1473 1472 1472 1472 1472 1472 1472 1471 1472 1472 1472 1472 1472 1472 1473 1473 1473 1473 1473 1473 1471 1463 1460 1464 1464 1464 1464 1465 1466 1466 1468 1470 1472 1474 1475 1477 1478 1481 1482 1484 1487 1489 1489 1490 1491 1492 1493 1493 1493 1492 1491 1490 1488 1487 1488 1486 1485 1485 1485 1486 1486 1485 1486 1486 1486 1486 1487 1487 1486 1487 1487 1488 1490 1492 1493 1493 1494 1494
1479 1478 1477 1476 1475 1474 1473 1473 1472 1472 1471 1471 1471 1470 1470 1470 1470 1470 1470 1470 1470 1470 1470 1471 1471 1472 1472 1472 1473 1472 1464 1459 1460 1463 1463 1463 1463 1464 1464 1465 1467 1469 1471 1473 1475 1477 1477 1479 1480 1482 1485 1486 1488 1488 1489 1493 1493 1491 1490 1491 1490 1489 1487 1488 1487 1485 1485 1485 1485 1487 1485 1484 1485 1486 1485 1485 1486 1487 1487 1487 1487 1488 1490 1492 1493 1493 1493 1493
1478 1476 1475 1474 1473 1473 1472 1471 1470 1470 1470 1469 1469 1469 1469 1469 1469 1469 1469 1469 1469 1469 1469 1470 1470 1470 1471 1470 1472 1469 1460 1458 1460 1460 1461 1462 1462 1464 1464 1464 1466 1468 1470 1472 1474 1476 1476 1477 1479 1482 1484 1486 1487 1488 1489 1491 1490 1488 1488 1489 1489 1488 1486 1487 1486 1484 1485 1485 1485 1486 1485 1484 1485 1487 1487 1485 1486 1486 1487 1488 1488 1489 1490 1491 1492 1493 1492 1493
1476 1475 1474 1473 1472 1471 1470 1470 1469 1468 1468 1468 1468 1467 1467 1468 1468 1468 1467 1467 1467 1468 1468 1468 1469 1469 1469 1469 1470 1465 1458 1459 1459 1458 1459 1460 1461 1463 1463 1464 1465 1468 1470 1471 1473 1474 1475 1477 1479 1482 1484 1485 1487 1488 1488 1488 1488 1487 1488 1489 1488 1487 1486 1486 1485 1484 1485 1484 1482 1484 1485 1485 1486 1487 1487 1486 1486 1487 1486 1488 1489 1489 1490 1491 1492 1492 1492 1494
1475 1474 1473 1472 1471 1470 1469 1468 1468 1467 1466 1466 1466 1466 1466 1466 1466 1466 1466 1466 1466 1466 1466 1467 1468 1467 1467 1467 1463 1458 1457 1459 1458 1458 1458 1459 1461 1462 1464 1465 1466 1468 1469 1471 1472 1473 1476 1478 1480 1482 1483 1484 1486 1487 1486 1486 1487 1486 1487 1488 1487 1486 1485 1483 1483 1482 1483 1483 1480 1483 1488 1488 1487 1486 1486 1486 1486 1486 1486 1487 1489 1490 1490 1491 1491 1492 1493 1496
1473 1472 1471 1471 1470 1469 1468 1467 1466 1465 1464 1464 1464 1464 1465 1465 1465 1465 1464 1465 1464 1465 1465 1466 1466 1466 1467 1463 1455 1454 1457 1458 1457 1457 1458 1458 1460 1462 1464 1465 1466 1469 1470 1471 1472 1474 1476 1479 1480 1481 1482 1483 1485 1485 1485 1485 1486 1486 1487 1487 1488 1489 1486 1482 1481 1481 1482 1482 1479 1483 1491 1489 1486 1486 1485 1485 1485 1485 1486 1487 1488 1489 1490 1491 1491 1492 1494 1496
1472 1471 1470 1469 1468 1468 1466 1465 1464 1463 1463 1463 1462 1463 1463 1463 1464 1463 1463 1463 1463 1464 1464 1465 1465 1465 1465 1457 1450 1453 1456 1456 1455 1455 1456 1458 1459 1461 1463 1464 1466 1468 1469 1470 1472 1473 1476 1479 1481 1481 1482 1483 1483 1483 1484 1485 1486 1486 1487 1489 1492 1494 1488 1481 1481 1482 1481 1482 1479 1483 1490 1487 1485 1486 1483 1483 1484 1484 1485 1486 1488 1488 1489 1490 1490 1492 1494 1496
1471 1470 1468 1468 1467 1466 1465 1464 1462 1461 1461 1461 1461 1461 1461 1462 1462 1461 1462 1461 1462 1462 1462 1463 1463 1464 1463 1454 1449 1452 1453 1453 1453 1452 1455 1457 1458 1459 1461 1463 1465 1466 1468 1469 1471 1472 1474 1478 1480 1481 1482 1481 1482 1484 1485 1486 1487 1488 1490 1493 1496 1495 1489 1482 1481 1481 1481 1481 1480 1483 1490 1488 1484 1484 1481 1482 1483 1483 1485 1485 1486 1487 1488 1490 1491 1493 1495 1496
1469 1468 1467 1466 1465 1465 1464 1462 1461 1460 1460 1459 1459 1460 1460 1460 1460 1460 1460 1460 1461 1461 1461 1463 1462 1464 1463 1453 1448 1449 1449 1449 1450 1451 1454 1455 1457 1459 1460 1462 1463 1465 1466 1468 1470 1471 1473 1477 1479 1481 1481 1481 1482 1483 1486 1489 1490 1490 1491 1493 1495 1494 1491 1486 1481 1481 1480 1481 1481 1483 1488 1487 1484 1482 1480 1481 1482 1483 1484 1485 1486 1487 1489 1490 1492 1494 1495 1497
1467 1467 1466 1465 1464 1463 1462 1461 1459 1458 1458 1458 1458 1458 1458 1458 1457 1458 1458 1459 1459 1459 1461 1461 1461 1464 1458 1448 1446 1447 1446 1447 1448 1450 1452 1454 1456 1457 1459 1461 1462 1464 1465 1467 1470 1471 1473 1476 1479 1480 1480 1481 1482 1482 1488 1494 1493 1493 1492 1492 1495 1495 1494 1489 1483 1481 1480 1481 1482 1483 1485 1486 1484 1483 1482 1483 1484 1485 1486 1486 1488 1489 1490 1491 1492 1493 1495 1497
1466 1466 1465 1463 1462 1461 1461 1460 1458 1457 1457 1456 1456 1457 1457 1456 1456 1456 1456 1457 1458 1460 1461 1460 1462 1463 1451 1443 1445 1445 1444 1446 1447 1448 1450 1452 1455 1457 1459 1460 1461 1463 1464 1467 1469 1471 1473 1475 1477 1479 1480 1481 1481 1481 1489 1493 1491 1491 1491 1491 1495 1496 1495 1491 1485 1481 1480 1481 1483 1484 1485 1486 1487 1486 1486 1486 1486 1488 1489 1490 1491 1491 1492 1492 1492 1493 1496 1497
1465 1464 1463 1462 1461 1460 1459 1458 1457 1456 1455 1455 1455 1455 1455 1455 1454 1454 1454 1455 1455 1457 1457 1454 1456 1454 1444 1440 1443 1443 1444 1445 1445 1446 1448 1450 1453 1456 1458 1459 1460 1461 1462 1466 1468 1470 1472 1474 1477 1480 1481 1481 1480 1480 1483 1486 1485 1486 1488 1490 1493 1495 1493 1491 1485 1480 1482 1484 1485 1484 1484 1490 1494 1493 1490 1488 1487 1488 1491 1492 1492 1493 1494 1494 1495 1495 1496 1497
1464 1463 1462 1461 1459 1458 1457 1456 1455 1455 1454 1454 1454 1454 1454 1454 1454 1454 1454 1453 1450 1449 1449 1447 1447 1444 1441 1442 1441 1442 1443 1443 1443 1444 1446 1449 1452 1454 1457 1459 1460 1460 1461 1463 1467 1469 1470 1475 1478 1479 1480 1479 1478 1479 1480 1482 1484 1485 1488 1490 1494 1495 1491 1488 1483 1480 1481 1483 1486 1486 1489 1497 1499 1497 1494 1490 1487 1488 1490 1491 1492 1493 1494 1495 1496 1496 1495 1495
1462 1461 1460 1459 1458 1457 1456 1455 1454 1454 1453 1453 1453 1454 1454 1455 1455 1455 1454 1450 1446 1446 1445 1444 1445 1442 1441 1442 1441 1442 1444 1443 1442 1442 1445 1447 1450 1452 1455 1458 1459 1460 1461 1461 1464 1467 1470 1476 1478 1476 1477 1476 1477 1479 1480 1482 1484 1484 1487 1489 1493 1495 1489 1484 1481 1480 1480 1482 1487 1490 1494 1501 1501 1498 1496 1491 1489 1492 1493 1493 1493 1493 1494 1494 1495 1496 1496 1495
1461 1460 1458 1458 1456 1455 1454 1454 1453 1453 1452 1452 1452 1453 1455 1455 1455 1455 1454 1450 1444 1443 1442 1442 1444 1440 1438 1440 1441 1443 1446 1445 1442 1441 1443 1445 1447 1450 1453 1456 1458 1459 1461 1461 1464 1469 1473 1477 1476 1474 1476 1477 1480 1481 1480 1482 1483 1484 1488 1489 1491 1493 1490 1484 1480 1481 1481 1481 1488 1492 1495 1502 1502 1499 1497 1494 1494 1496 1496 1495 1494 1494 1494 1494 1494 1495 1497 1496
1459 1458 1457 1456 1454 1454 1453 1452 1452 1451 1451 1451 1452 1453 1455 1455 1455 1454 1454 1452 1443 1437 1437 1438 1438 1436 1435 1437 1439 1443 1445 1444 1442 1440 1441 1443 1446 1448 1451 1455 1457 1459 1460 1460 1463 1470 1476 1475 1472 1473 1476 1477 1480 1482 1480 1481 1484 1485 1487 1488 1490 1491 1490 1485 1480 1481 1483 1483 1489 1491 1495 1502 1503 1499 1497 1498 1499 1497 1496 1497 1495 1495 1495 1495 1495 1495 1497 1497
1457 1456 1455 1454 1453 1452 1451 1451 1450 1450 1450 1451 1452 1453 1454 1454 1454 1453 1452 1450 1443 1434 1432 1432 1433 1433 1432 1434 1438 1441 1441 1441 1441 1439 1440 1442 1444 1447 1450 1453 1456 1459 1460 1460 1462 1468 1471 1470 1468 1473 1475 1475 1479 1483 1481 1481 1484 1487 1486 1486 1487 1487 1488 1486 1482 1481 1482 1486 1489 1486 1493 1505 1507 1504 1502 1501 1500 1497 1496 1497 1496 1497 1498 1496 1496 1496 1497 1498
1456 1455 1454 1452 1451 1450 1449 1450 1449 1449 1449 1450 1452 1452 1453 1453 1452 1452 1451 1449 1442 1433 1429 1429 1430 1428 1428 1433 1436 1437 1439 1439 1437 1438 1438 1439 1442 1445 1448 1451 1454 1459 1461 1461 1463 1465 1467 1467 1468 1472 1474 1475 1478 1481 1481 1479 1483 1487 1485 1483 1483 1482 1485 1485 1485 1485 1484 1487 1489 1485 1496 1515 1515 1508 1507 1504 1502 1501 1500 1499 1499 1500 1500 1499 1499 1498 1497 1498
1454 1453 1452 1451 1450 1448 1449 1448 1448 1449 1448 1450 1451 1451 1452 1452 1451 1452 1451 1450 1442 1430 1426 1427 1426 1424 1424 1429 1432 1435 1440 1437 1433 1436 1438 1439 1441 1442 1446 1449 1451 1457 1460 1460 1463 1464 1465 1466 1467 1470 1473 1475 1477 1480 1480 1479 1483 1486 1481 1479 1480 1482 1484 1484 1484 1486 1485 1487 1491 1486 1494 1515 1520 1511 1508 1508 1506 1506 1503 1502 1503 1503 1503 1502 1501 1500 1498 1498
1452 1452 1450 1449 1448 1448 1448 1447 1448 1448 1447 1449 1450 1450 1452 1450 1451 1451 1450 1452 1441 1424 1422 1426 1424 1421 1421 1424 1427 1434 1438 1432 1431 1436 1436 1438 1441 1441 1445 1449 1449 1454 1456 1458 1464 1464 1463 1466 1468 1469 1472 1476 1478 1479 1479 1478 1482 1483 1477 1477 1481 1482 1483 1483 1482 1483 1483 1484 1487 1488 1488 1502 1518 1516 1510 1510 1507 1506 1506 1505 1506 1505 1505 1504 1503 1501 1500 1499
1451 1450 1449 1448 1447 1447 1447 1446 1447 1447 1447 1449 1449 1450 1451 1450 1451 1450 1452 1455 1436 1416 1418 1422 1420 1420 1421 1423 1426 1428 1429 1425 1429 1435 1434 1437 1441 1440 1444 1447 1447 1451 1451 1455 1464 1463 1460 1464 1466 1467 1471 1475 1475 1474 1475 1476 1478 1477 1475 1478 1480 1480 1481 1482 1482 1482 1487 1487 1484 1488 1489 1494 1514 1520 1511 1510 1509 1508 1510 1510 1509 1508 1507 1506 1504 1503 1502 1501
1449 1448 1447 1446 1446 1446 1445 1445 1445 1446 1447 1447 1448 1450 1449 1450 1451 1450 1456 1452 1427 1413 1416 1417 1418 1420 1420 1423 1426 1425 1425 1424 1426 1431 1433 1436 1439 1439 1443 1445 1446 1450 1450 1452 1459 1459 1458 1460 1460 1463 1468 1470 1469 1469 1471 1473 1474 1473 1476 1479 1479 1482 1485 1486 1485 1481 1487 1491 1487 1492 1496 1494 1512 1523 1515 1513 1513 1514 1515 1513 1512 1511 1509 1508 1507 1506 1505 1504
1447 1446 1446 1445 1445 1445 1444 1444 1444 1445 1446 1446 1447 1448 1448 1450 1450 1455 1461 1446 1421 1415 1416 1415 1418 1419 1420 1424 1426 1425 1425 1425 1425 1428 1432 1435 1437 1439 1441 1443 1445 1449 1451 1453 1456 1456 1457 1457 1458 1460 1462 1462 1463 1466 1469 1469 1471 1472 1475 1478 1480 1484 1486 1487 1489 1484 1489 1496 1495 1502 1504 1495 1505 1520 1518 1516 1517 1517 1517 1515 1514 1512 1511 1510 1509 1508 1508 1507
1446 1445 1444 1443 1443 1444 1443 1443 1443 1444 1445 1445 1446 1447 1448 1449 1451 1458 1454 1432 1419 1419 1416 1417 1418 1416 1419 1422 1424 1426 1425 1425 1425 1427 1432 1435 1437 1439 1440 1444 1447 1450 1455 1456 1457 1458 1458 1458 1458 1456 1457 1459 1461 1466 1469 1469 1470 1471 1472 1477 1483 1488 1489 1489 1491 1489 1496 1502 1501 1509 1509 1497 1504 1518 1519 1517 1517 1517 1517 1517 1516 1514 1513 1512 1511 1510 1510 1509
1444 1443 1442 1442 1442 1442 1442 1442 1442 1443 1444 1444 1446 1446 1448 1452 1455 1454 1441 1424 1424 1423 1416 1417 1417 1416 1419 1419 1421 1424 1424 1426 1426 1426 1431 1434 1437 1439 1440 1444 1446 1454 1462 1461 1460 1462 1459 1457 1457 1455 1454 1456 1459 1466 1472 1472 1471 1472 1473 1478 1487 1495 1498 1498 1500 1500 1501 1503 1506 1511 1507 1504 1513 1519 1518 1517 1516 1516 1516 1516 1516 1516 1515 1514 1512 1512 1511 1511
1441 1440 1440 1440 1440 1440 1441 1442 1441 1443 1443 1443 1445 1445 1448 1456 1454 1444 1436 1430 1429 1424 1418 1416 1414 1415 1419 1419 1421 1422 1422 1426 1426 1427 1430 1433 1437 1440 1441 1442 1442 1449 1459 1461 1462 1463 1462 1459 1455 1455 1455 1453 1456 1464 1470 1473 1472 1472 1474 1478 1486 1497 1503 1508 1514 1514 1507 1504 1510 1511 1505 1509 1520 1519 1516 1518 1516 1516 1516 1515 1516 1517 1516 1515 1514 1513 1512 1512
1438 1438 1438 1438 1438 1438 1440 1441 1440 1441 1443 1443 1445 1445 1451 1457 1446 1432 1433 1432 1429 1427 1423 1417 1414 1416 1418 1419 1420 1419 1423 1427 1425 1427 1430 1433 1439 1442 1442 1443 1441 1443 1451 1459 1462 1462 1465 1464 1455 1452 1453 1450 1452 1456 1458 1463 1469 1471 1471 1474 1480 1486 1492 1502 1508 1505 1504 1508 1512 1511 1508 1515 1521 1519 1516 1516 1515 1516 1516 1516 1517 1517 1518 1516 1515 1514 1513 1513
1436 1436 1436 1435 1436 1436 1437 1439 1439 1440 1442 1442 1444 1447 1452 1451 1440 1433 1434 1430 1430 1431 1424 1416 1415 1418 1419 1419 1418 1417 1420 1425 1426 1428 1431 1434 1439 1441 1442 1442 1442 1443 1448 1458 1462 1461 1464 1460 1448 1446 1449 1447 1448 1450 1450 1457 1468 1472 1471 1474 1477 1474 1477 1495 1505 1502 1503 1510 1515 1517 1517 1518 1518 1516 1516 1515 1515 1517 1517 1518 1518 1518 1518 1517 1516 1516 1516 1515
1435 1434 1434 1433 1434 1435 1435 1437 1438 1439 1441 1442 1444 1449 1449 1442 1438 1440 1437 1431 1432 1431 1424 1420 1417 1418 1422 1420 1419 1418 1417 1422 1427 1429 1433 1435 1436 1439 1440 1438 1440 1442 1444 1451 1458 1460 1463 1456 1446 1446 1447 1445 1446 1447 1449 1453 1462 1471 1473 1473 1474 1470 1471 1489 1507 1511 1508 1509 1520 1526 1523 1519 1519 1517 1515 1514 1515 1517 1518 1518 1519 1519 1519 1519 1518 1519 1518 1517
1433 1432 1432 1431 1432 1433 1434 1435 1437 1438 1440 1441 1444 1446 1443 1438 1436 1437 1434 1431 1432 1429 1428 1427 1418 1416 1422 1422 1421 1420 1417 1422 1427 1429 1434 1437 1436 1437 1438 1436 1437 1439 1439 1444 1450 1454 1456 1452 1446 1445 1445 1445 1445 1446 1449 1450 1454 1465 1469 1468 1470 1473 1473 1479 1495 1509 1511 1514 1525 1528 1522 1520 1524 1521 1516 1515 1516 1517 1519 1519 1520 1521 1520 1521 1522 1521 1520 1519
1432 1431 1430 1430 1431 1431 1432 1434 1436 1439 1440 1442 1444 1442 1438 1437 1435 1432 1430 1429 1429 1427 1427 1425 1416 1414 1418 1420 1421 1420 1417 1422 1427 1428 1433 1436 1435 1435 1435 1435 1436 1438 1437 1439 1445 1449 1451 1451 1449 1446 1446 1446 1445 1447 1453 1454 1451 1454 1458 1461 1466 1473 1478 1481 1490 1501 1509 1522 1530 1526 1522 1524 1523 1519 1515 1515 1516 1517 1519 1520 1520 1522 1523 1523 1524 1522 1521 1520
1432 1431 1430 1429 1430 1431 1433 1435 1437 1439 1441 1443 1445 1441 1437 1435 1433 1431 1429 1427 1427 1425 1422 1417 1412 1413 1414 1415 1419 1419 1417 1422 1426 1429 1432 1435 1435 1434 1434 1434 1435 1437 1437 1436 1442 1447 1450 1453 1452 1447 1446 1446 1446 1449 1456 1459 1456 1454 1457 1461 1464 1468 1474 1479 1487 1491 1499 1521 1532 1526 1525 1523 1517 1514 1513 1512 1515 1516 1518 1520 1520 1523 1524 1525 1525 1524 1523 1522
1432 1431 1430 1430 1431 1432 1433 1435 1438 1440 1441 1441 1442 1439 1435 1433 1432 1429 1426 1425 1424 1421 1416 1411 1409 1411 1412 1412 1415 1416 1418 1422 1426 1429 1431 1433 1435 1435 1434 1434 1434 1436 1437 1437 1441 1444 1447 1452 1453 1449 1447 1449 1451 1454 1456 1456 1456 1458 1461 1464 1467 1471 1474 1477 1487 1492 1495 1513 1530 1530 1527 1521 1512 1512 1512 1511 1513 1515 1517 1519 1521 1523 1525 1525 1525 1525 1525 1524
1432 1431 1430 1430 1431 1432 1433 1436 1438 1439 1439 1439 1438 1437 1434 1432 1431 1428 1423 1422 1421 1416 1411 1409 1408 1407 1409 1411 1413 1414 1418 1424 1426 1429 1432 1433 1435 1436 1435 1434 1434 1435 1437 1439 1441 1442 1446 1451 1453 1452 1452 1454 1457 1457 1456 1454 1453 1455 1458 1462 1466 1470 1473 1478 1490 1499 1497 1504 1517 1520 1519 1519 1514 1511 1511 1511 1512 1514 1517 1519 1521 1523 1524 1525 1525 1525 1525 1524
1431 1431 1431 1430 1431 1433 1434 1436 1437 1437 1438 1438 1436 1435 1434 1432 1431 1427 1422 1419 1417 1412 1408 1407 1407 1407 1407 1409 1411 1413 1418 1426 1428 1429 1432 1434 1435 1437 1435 1433 1433 1433 1435 1440 1441 1441 1444 1448 1452 1457 1459 1459 1459 1457 1457 1456 1455 1456 1459 1466 1468 1465 1466 1472 1482 1493 1499 1504 1509 1509 1511 1516 1515 1512 1512 1514 1514 1515 1518 1519 1519 1523 1525 1525 1525 1525 1525 1525
1431 1431 1431 1431 1433 1434 1435 1436 1437 1437 1437 1435 1434 1433 1432 1432 1430 1427 1422 1417 1414 1410 1407 1406 1406 1407 1407 1408 1410 1412 1418 1427 1431 1430 1431 1434 1435 1435 1434 1432 1432 1433 1434 1439 1441 1440 1443 1449 1455 1460 1460 1457 1455 1455 1456 1455 1456 1459 1466 1474 1473 1468 1468 1470 1473 1481 1493 1503 1504 1501 1509 1516 1514 1513 1515 1516 1516 1517 1519 1519 1519 1523 1526 1525 1525 1525 1525 1526
1431 1431 1431 1432 1433 1434 1434 1435 1435 1436 1435 1434 1434 1432 1430 1430 1429 1425 1421 1416 1413 1411 1408 1407 1407 1407 1408 1408 1409 1413 1417 1424 1432 1432 1431 1433 1433 1433 1432 1430 1431 1432 1433 1435 1436 1437 1444 1452 1456 1461 1467 1466 1463 1462 1459 1457 1461 1469 1476 1480 1478 1475 1473 1472 1475 1478 1487 1502 1500 1492 1504 1516 1514 1515 1517 1517 1518 1519 1521 1521 1520 1523 1526 1526 1526 1526 1526 1526
1432 1431 1432 1433 1434 1434 1434 1434 1434 1436 1436 1436 1435 1432 1429 1427 1424 1421 1419 1416 1414 1412 1410 1408 1408 1408 1409 1408 1410 1415 1416 1418 1426 1431 1431 1433 1433 1432 1431 1430 1430 1431 1432 1433 1432 1434 1448 1460 1459 1457 1467 1473 1472 1470 1466 1465 1469 1476 1482 1483 1480 1479 1473 1470 1476 1475 1480 1499 1500 1489 1500 1515 1515 1516 1518 1518 1520 1521 1523 1522 1521 1525 1527 1526 1526 1527 1526 1526
1432 1432 1434 1435 1435 1435 1434 1434 1434 1435 1436 1436 1433 1430 1428 1426 1421 1417 1418 1416 1414 1413 1411 1410 1409 1409 1409 1410 1413 1419 1420 1418 1421 1427 1430 1432 1433 1433 1432 1431 1431 1431 1432 1433 1433 1438 1453 1469 1469 1461 1463 1467 1471 1473 1473 1473 1474 1478 1484 1485 1484 1486 1481 1473 1474 1473 1478 1495 1500 1493 1501 1511 1513 1517 1518 1519 1521 1523 1524 1523 1523 1527 1528 1527 1528 1527 1527 1527
1431 1431 1432 1434 1435 1435 1434 1434 1434 1434 1434 1433 1432 1429 1427 1425 1421 1417 1416 1416 1415 1414 1412 1412 1412 1411 1412 1414 1416 1422 1425 1423 1422 1426 1431 1433 1433 1434 1433 1432 1432 1432 1433 1434 1435 1441 1453 1469 1475 1474 1475 1477 1479 1480 1478 1477 1480 1484 1487 1487 1486 1488 1484 1472 1471 1476 1480 1487 1492 1496 1501 1505 1511 1517 1519 1520 1523 1524 1525 1524 1526 1530 1530 1529 1529 1528 1528 1528
1430 1429 1429 1430 1432 1433 1433 1432 1432 1432 1433 1432 1432 1430 1427 1425 1422 1419 1417 1415 1415 1414 1413 1414 1416 1417 1417 1416 1417 1423 1427 1427 1428 1432 1433 1433 1433 1433 1433 1434 1434 1434 1435 1436 1438 1442 1454 1469 1476 1477 1482 1485 1483 1482 1479 1479 1485 1488 1488 1488 1488 1489 1484 1478 1482 1490 1485 1477 1480 1493 1502 1507 1513 1518 1520 1522 1524 1524 1526 1527 1528 1531 1531 1530 1530 1529 1529 1528
1430 1430 1429 1429 1429 1429 1430 1430 1430 1431 1432 1432 1432 1430 1428 1425 1423 1421 1420 1417 1417 1417 1416 1419 1422 1421 1420 1417 1418 1423 1427 1428 1431 1434 1433 1434 1434 1434 1435 1436 1436 1436 1436 1438 1441 1443 1455 1473 1477 1476 1482 1487 1485 1484 1482 1482 1486 1489 1490 1491 1491 1492 1490 1488 1492 1495 1490 1484 1486 1495 1504 1513 1518 1520 1521 1523 1524 1525 1526 1528 1530 1531 1532 1531 1531 1531 1530 1529
1431 1430 1430 1430 1429 1429 1429 1429 1429 1430 1431 1432 1431 1429 1427 1425 1422 1421 1422 1421 1421 1420 1419 1423 1426 1424 1421 1420 1420 1425 1428 1427 1428 1431 1432 1434 1435 1436 1437 1438 1439 1439 1438 1442 1445 1444 1452 1471 1477 1474 1481 1490 1490 1488 1486 1485 1488 1491 1494 1495 1494 1494 1495 1494 1496 1496 1494 1496 1499 1502 1508 1517 1522 1521 1522 1523 1524 1525 1527 1528 1530 1531 1531 1531 1532 1532 1531 1530
1431 1430 1430 1430 1429 1428 1429 1429 1429 1430 1431 1431 1430 1427 1425 1424 1422 1421 1422 1422 1422 1421 1421 1424 1426 1424 1424 1424 1424 1428 1430 1428 1427 1429 1430 1432 1433 1434 1436 1438 1439 1440 1441 1445 1448 1446 1451 1468 1476 1472 1479 1491 1492 1489 1490 1488 1487 1490 1496 1499 1498 1499 1499 1499 1501 1500 1498 1500 1503 1505 1510 1517 1521 1522 1523 1524 1525 1527 1528 1529 1531 1531 1531 1532 1532 1532 1532 1531
1430 1430 1430 1430 1429 1428 1428 1429 1430 1430 1429 1428 1427 1425 1423 1423 1422 1421 1423 1425 1424 1423 1424 1424 1424 1425 1427 1428 1429 1430 1430 1429 1430 1431 1431 1432 1434 1435 1437 1439 1440 1440 1443 1446 1451 1452 1454 1464 1471 1471 1478 1491 1492 1489 1490 1487 1481 1487 1499 1504 1503 1503 1503 1503 1504 1504 1502 1501 1503 1505 1509 1516 1521 1522 1523 1526 1527 1528 1529 1530 1531 1531 1532 1532 1533 1533 1533 1532